Location: Newark
(39.6172°N, 96.8533°W)
Time: 05:30:43
(UTC+00:00)

Transit 2A - Visible Passes

Search period start: 25 February 2020 00:00
Search period end: 06 March 2020 00:00
Orbit: 600 x 959 km, 66.7° (Epoch: 24 February)

Date Brightness Start Highest point End Pass type
(mag) Time Alt. Az. Time Alt. Az. Time Alt. Az.
25 Feb 8.2 02:33:02 10° N 02:33:57 13° N 02:33:57 13° N visible
26 Feb 8.0 01:59:37 10° NNE 02:01:02 13° NNE 02:01:02 13° NNE visible
26 Feb 8.6 03:40:55 10° NNW 03:41:33 14° NNW 03:41:33 14° NNW visible
27 Feb 8.1 01:27:18 10° NE 01:27:53 10° NE 01:28:11 10° NE visible
27 Feb 7.9 03:06:52 10° NNW 03:08:42 22° NNW 03:08:42 22° NNW visible
28 Feb 7.2 02:32:54 10° NNW 02:35:56 30° NNE 02:35:56 30° NNE visible
28 Feb 9.0 04:16:19 10° NW 04:16:27 11° NW 04:16:27 11° NW visible
29 Feb 7.0 01:59:02 10° N 02:03:16 29° NE 02:03:16 29° NE visible
29 Feb 8.2 03:41:50 10° NW 03:43:47 22° NW 03:43:47 22° NW visible
01 Mar 7.4 01:25:19 10° N 01:29:15 21° NE 01:30:40 19° ENE visible
01 Mar 7.1 03:07:31 10° NW 03:11:12 44° WNW 03:11:12 44° WNW visible
02 Mar 7.7 00:51:48 10° N 00:54:53 16° NE 00:58:07 10° E visible
02 Mar 6.0 02:33:20 10° NNW 02:38:39 89° SW 02:38:46 86° SSE visible
03 Mar 6.1 01:59:16 10° NNW 02:04:30 64° ENE 02:06:29 39° SE visible
03 Mar 8.4 03:43:40 10° WNW 03:47:03 18° WSW 03:47:03 18° WSW visible
04 Mar 6.5 01:25:16 10° NNW 01:30:18 44° ENE 01:34:24 17° ESE visible
04 Mar 7.9 03:08:49 10° NW 03:13:19 27° WSW 03:14:58 23° SW visible
05 Mar 6.9 00:51:23 10° N 00:56:04 32° NE 01:01:09 10° ESE visible
05 Mar 7.4 02:34:18 10° NW 02:39:17 39° WSW 02:43:09 18° S visible
